This demonstration page uses our WeatherBlox Daily Observations layout. Learn more.

Left ArrowRight Arrow

36.17497, -115.13722

Hourly Observations for August 14, 2016

Temp ( °F °C ) Dew Point ( °F °C ) Humidity (%) Winds ( mph kmh ) Pressure ( in mb ) Visibility ( mi km ) Precip ( " mm )
12:53 am 00:53 Clear 88 31.1 39 3.9 18 18 W 6 9 29.8 1009 10 16.0934 0 0
1:53 am 01:53 Clear 88 31.1 35 1.7 15 15 NW 6 9 29.8 1009 10 16.0934 0 0
2:53 am 02:53 Clear 86 30 38 3.3 18 18 WNW 6 9 29.8 1009 10 16.0934 0 0
3:53 am 03:53 Clear 89 31.7 31 -0.6 12 12 NW 8 13 29.8 1009 10 16.0934 0 0
4:53 am 04:53 Clear 84 28.9 31 -0.6 15 15 Calm 29.83 1010 10 16.0934 0 0
5:53 am 05:53 Clear 82 27.8 33 0.6 17 17 NW 6 9 29.84 1011 10 16.0934 0 0
6:53 am 06:53 Sunny 82 27.8 35 1.7 18 18 NNE 3 6 29.87 1012 10 16.0934 0 0
7:53 am 07:53 Sunny 87 30.6 33 0.6 14 14 NW 9 15 29.88 1012 10 16.0934 0 0
8:53 am 08:53 Sunny 93 33.9 35 1.7 13 13 NW 3 6 29.89 1012 10 16.0934 0 0
9:53 am 09:53 Sunny 97 36.1 34 1.1 11 11 Calm 29.88 1012 10 16.0934 0 0
10:53 am 10:53 Sunny 100 37.8 32 0 9 9 SE 7 11 29.88 1012 10 16.0934 0 0
11:53 am 11:53 Sunny 102 38.9 34 1.1 9 9 ESE 9 15 29.86 1011 10 16.0934 0 0
12:53 pm 12:53 Sunny 104 40 34 1.1 9 9 SSE 10 17 29.84 1010 10 16.0934 0 0
1:53 pm 13:53 Sunny 107 41.7 33 0.6 8 8 SSW 10 17 29.81 1009 10 16.0934 0 0
2:53 pm 14:53 Sunny 107 41.7 34 1.1 8 8 S 14 22 29.78 1008 10 16.0934 0 0
3:53 pm 15:53 Sunny 108 42.2 34 1.1 8 8 SSE 16 26 29.74 1007 10 16.0934 0 0
4:53 pm 16:53 Sunny 109 42.8 35 1.7 8 8 SW 16 26 29.73 1007 10 16.0934 0 0
5:53 pm 17:53 Sunny 107 41.7 36 2.2 9 9 W 14 22 29.74 1007 10 16.0934 0 0
6:53 pm 18:53 Sunny 106 41.1 36 2.2 9 9 SW 12 19 29.73 1007 10 16.0934 0 0
7:53 pm 19:53 Clear 104 40 36 2.2 9 9 SW 12 19 29.75 1007 10 16.0934 0 0
8:53 pm 20:53 Clear 101 38.3 36 2.2 10 10 SSW 6 9 29.76 1008 10 16.0934 0 0
9:53 pm 21:53 Clear 97 36.1 36 2.2 12 12 S 7 11 29.77 1008 10 16.0934 0 0
10:53 pm 22:53 Clear 95 35 36 2.2 13 13 WSW 3 6 29.78 1008 10 16.0934 0 0
11:53 pm 23:53 Clear 96 35.6 35 1.7 12 12 WSW 7 11 29.78 1009 10 16.0934 0 0

Powered by AerisWeather